GW6823 Weather Reports


time (UTC)temp
F
wind
direction
speed
knots
gust
knots
rain 1hr
in
rain 24hr
in
rain mn
in
humidity
%
barometer
mb
20260502224000 71 322 5.2 12.2 0.00 0.00 0.00 40 1013.0
20260502223500 71 312 5.2 12.2 0.00 0.00 0.00 43 1013.0
20260502223000 71 322 6.1 10.4 0.00 0.00 0.00 44 1013.1
20260502222500 71 317 9.6 11.3 0.00 0.00 0.00 42 1013.0
20260502222000 71 358 8.7 13.0 0.00 0.00 0.00 39 1013.1
20260502221500 71 329 7.0 13.0 0.00 0.00 0.00 42 1013.0
20260502221000 71 341 3.5 11.3 0.00 0.00 0.00 41 1013.0
20260502220500 71 342 7.8 11.3 0.00 0.00 0.00 40 1013.0
20260502220000 71 335 7.0 15.6 0.00 0.00 0.00 42 1013.0
20260502215500 71 355 6.1 15.6 0.00 0.00 0.00 39 1013.0
20260502215001 71 331 4.3 13.0 0.00 0.00 0.00 40 1013.0
20260502214500 71 351 11.3 13.0 0.00 0.00 0.00 42 1013.0
20260502214000 71 2 6.1 12.2 0.00 0.00 0.00 37 1013.0
20260502213500 71 342 7.8 12.2 0.00 0.00 0.00 41 1013.1
20260502213000 71 296 10.4 12.2 0.00 0.00 0.00 46 1013.0
20260502212501 71 324 9.6 13.0 0.00 0.00 0.00 42 1013.1
20260502212000 71 317 8.7 15.6 0.00 0.00 0.00 39 1013.2
20260502211500 71 352 6.1 15.6 0.00 0.00 0.00 43 1013.2
20260502211000 71 329 3.5 15.6 0.00 0.00 0.00 43 1013.3
20260502210500 71 337 9.6 15.6 0.00 0.00 0.00 39 1013.3
20260502210000 71 327 4.3 14.8 0.00 0.00 0.00 36 1013.3
20260502205500 71 354 7.8 14.8 0.00 0.00 0.00 38 1013.3
20260502205000 70 333 4.3 13.0 0.00 0.00 0.00 38 1013.3
20260502204500 70 14 4.3 11.3 0.00 0.00 0.00 42 1013.2
20260502204000 70 305 4.3 8.7 0.00 0.00 0.00 42 1013.4
20260502203500 71 313 4.3 8.7 0.00 0.00 0.00 46 1013.5
20260502203000 71 319 1.7 12.2 0.00 0.00 0.00 41 1013.7
20260502202500 71 337 4.3 12.2 0.00 0.00 0.00 37 1013.7
20260502202000 71 326 9.6 10.4 0.00 0.00 0.00 44 1013.7
20260502201500 71 334 7.0 10.4 0.00 0.00 0.00 39 1013.8
20260502201000 70 321 5.2 13.0 0.00 0.00 0.00 40 1013.8
20260502200500 70 338 5.2 13.0 0.00 0.00 0.00 38 1013.9
20260502200000 71 315 6.1 13.0 0.00 0.00 0.00 45 1013.9
20260502195500 70 307 7.8 13.0 0.00 0.00 0.00 40 1013.9
20260502195000 70 321 13.0 13.0 0.00 0.00 0.00 40 1013.9
20260502194500 69 324 8.7 11.3 0.00 0.00 0.00 43 1013.9
20260502194000 69 323 5.2 11.3 0.00 0.00 0.00 44 1014.0
20260502193500 69 301 7.8 11.3 0.00 0.00 0.00 41 1014.0
20260502193000 70 337 5.2 11.3 0.00 0.00 0.00 43 1014.1
20260502192500 69 294 5.2 13.9 0.00 0.00 0.00 36 1014.2
20260502192000 70 307 8.7 13.9 0.00 0.00 0.00 38 1014.1
20260502191500 71 289 13.9 13.9 0.00 0.00 0.00 41 1014.2
20260502191000 70 276 10.4 10.4 0.00 0.00 0.00 41 1014.2
20260502190500 70 312 7.0 11.3 0.00 0.00 0.00 43 1014.2
20260502190000 70 338 5.2 13.9 0.00 0.00 0.00 43 1014.3
20260502185501 70 312 7.0 14.8 0.00 0.00 0.00 41 1014.5
20260502185000 70 283 7.8 14.8 0.00 0.00 0.00 38 1014.5
20260502184500 70 288 8.7 13.9 0.00 0.00 0.00 40 1014.5
20260502184000 70 329 3.5 13.9 0.00 0.00 0.00 41 1014.5
20260502183500 69 328 9.6 12.2 0.00 0.00 0.00 44 1014.4
20260502183001 69 297 7.8 9.6 0.00 0.00 0.00 37 1014.6
20260502182500 69 275 5.2 9.6 0.00 0.00 0.00 43 1014.5
20260502182000 68 301 4.3 12.2 0.00 0.00 0.00 43 1014.6
20260502181501 69 308 7.8 14.8 0.00 0.00 0.00 47 1014.7
20260502181000 69 324 6.1 15.6 0.00 0.00 0.00 41 1014.7
20260502180500 69 292 11.3 15.6 0.00 0.00 0.00 42 1014.8
20260502170500 68 286 6.1 11.3 0.00 0.00 0.00 47 1015.4
20260502164000 68 275 10.4 10.4 0.00 0.00 0.00 46 1015.5
20260502163500 66 278 5.2 8.7 0.00 0.00 0.00 44 1015.6
20260502163000 66 328 4.3 8.7 0.00 0.00 0.00 40 1015.5
20260502162500 67 285 6.1 8.7 0.00 0.00 0.00 45 1015.5
20260502162000 66 332 4.3 10.4 0.00 0.00 0.00 43 1015.6
20260502161500 66 270 4.3 10.4 0.00 0.00 0.00 47 1015.6
20260502161001 66 283 4.3 9.6 0.00 0.00 0.00 47 1015.5
20260502160501 65 245 4.3 9.6 0.00 0.00 0.00 45 1015.6
20260502152001 64 280 4.3 7.0 0.00 0.00 0.00 46 1015.6
20260502151500 65 275 4.3 7.0 0.00 0.00 0.00 45 1015.6
20260502151000 64 301 1.7 5.2 0.00 0.00 0.00 45 1015.6
20260502150500 64 306 1.7 6.1 0.00 0.00 0.00 46 1015.5
20260502130500 54 274 2.6 3.5 0.00 0.00 0.00 82 1014.3
20260502123501 51 301 1.7 2.6 0.00 0.00 0.00 89 1013.7
20260502123000 50 295 1.7 2.6 0.00 0.00 0.00 90 1013.5
20260502122500 50 253 0.9 1.7 0.00 0.00 0.00 90 1013.5
20260502122000 49 246 0.9 1.7 0.00 0.00 0.00 89 1013.4
20260502121506 49 341 0.0 1.7 0.00 0.00 0.00 89 1013.4
20260502121000 49 296 0.9 1.7 0.00 0.00 0.00 89 1013.3
20260502120506 49 277 1.7 1.7 0.00 0.00 0.00 90 1013.2
20260502115500 49 298 0.9 1.7 0.00 0.00 0.00 89 1013.1
20260502115000 48 278 1.7 1.7 0.00 0.00 0.00 89 1013.0
20260502114500 48 269 0.9 1.7 0.00 0.00 0.00 89 1013.0
20260502114000 48 263 0.9 2.6 0.00 0.00 0.00 89 1012.8
20260502113500 48 278 1.7 2.6 0.00 0.00 0.00 88 1012.7
20260502113000 49 286 1.7 2.6 0.00 0.00 0.00 88 1012.6
20260502112500 49 279 2.6 2.6 0.00 0.00 0.00 87 1012.6
20260502112000 49 267 1.7 1.7 0.00 0.00 0.00 86 1012.6
20260502111500 49 220 0.9 1.7 0.00 0.00 0.00 85 1012.5
20260502111000 50 266 0.9 1.7 0.00 0.00 0.00 84 1012.4
20260502110500 49 269 0.9 1.7 0.00 0.00 0.00 85 1012.4
20260502110000 50 240 1.7 1.7 0.00 0.00 0.00 84 1012.5
20260502105500 50 219 0.9 0.9 0.00 0.00 0.00 83 1012.4
20260502105001 50 257 0.9 0.9 0.00 0.00 0.00 83 1012.4
20260502104500 50 254 0.9 0.9 0.00 0.00 0.00 84 1012.3
20260502104000 50 236 0.9 0.9 0.00 0.00 0.00 83 1012.3
20260502103500 50 292 0.9 0.9 0.00 0.00 0.00 84 1012.3
20260502103000 50 239 0.9 0.9 0.00 0.00 0.00 84 1012.3
20260502102500 50 235 0.9 1.7 0.00 0.00 0.00 84 1012.3
20260502102000 50 288 0.9 1.7 0.00 0.00 0.00 84 1012.2
20260502101500 50 279 0.9 0.9 0.00 0.00 0.00 84 1012.2
20260502101000 50 245 0.9 0.9 0.00 0.00 0.00 84 1012.1
20260502100500 50 224 0.9 0.9 0.00 0.00 0.00 85 1012.1
20260502091500 50 87 0.9 0.9 0.00 0.00 0.00 84 1011.7
20260502091000 51 335 0.9 0.9 0.00 0.00 0.00 84 1011.7
20260502090500 51 357 0.9 0.9 0.00 0.00 0.00 83 1011.7
20260502071500 54 70 0.0 0.9 0.00 0.00 0.00 80 1011.7
20260502071000 54 293 0.9 0.9 0.00 0.00 0.00 78 1011.8
20260502070500 54 239 0.9 0.9 0.00 0.00 0.00 79 1011.8
20260502070000 54 245 0.9 0.9 0.00 0.00 0.00 78 1011.8
20260502065500 54 227 0.9 0.9 0.00 0.00 0.00 80 1011.9
20260502065000 54 214 0.9 1.7 0.00 0.00 0.00 80 1011.9
20260502064500 54 143 0.0 2.6 0.00 0.00 0.00 80 1012.0
20260502064000 54 341 1.7 2.6 0.00 0.00 0.00 80 1012.0
20260502063500 54 336 0.9 2.6 0.00 0.00 0.00 80 1012.1
20260502063000 55 17 0.9 2.6 0.00 0.00 0.00 80 1012.2
20260502062500 55 283 1.7 1.7 0.00 0.00 0.00 80 1012.3
20260502062000 54 272 0.9 1.7 0.00 0.00 0.00 80 1012.2
20260502061000 54 106 0.9 0.9 0.00 0.00 0.00 81 1012.1
20260502060500 54 198 0.9 0.9 0.00 0.00 0.00 83 1012.0
20260502060000 54 166 0.9 2.6 0.00 0.00 0.00 82 1012.0
20260502055500 55 106 0.9 2.6 0.00 0.00 0.00 81 1012.0
20260502055000 55 306 1.7 2.6 0.00 0.00 0.00 82 1012.0
20260502054500 55 312 0.9 2.6 0.00 0.00 0.00 81 1012.1
20260502054000 55 312 2.6 2.6 0.00 0.00 0.00 81 1012.2
20260502053500 55 308 2.6 2.6 0.00 0.00 0.00 81 1012.3
20260502053000 55 298 1.7 1.7 0.00 0.00 0.00 81 1012.3
20260502052500 55 281 1.7 1.7 0.00 0.00 0.00 79 1012.3
20260502052000 55 251 1.7 1.7 0.00 0.00 0.00 79 1012.3
20260502051500 55 235 1.7 1.7 0.00 0.00 0.00 81 1012.3
20260502051000 55 248 0.9 1.7 0.00 0.00 0.00 81 1012.2
20260502050500 55 227 0.9 1.7 0.00 0.00 0.00 80 1012.1
20260502050000 56 281 0.9 1.7 0.00 0.00 0.00 76 1012.0
20260502045500 56 289 0.9 1.7 0.00 0.00 0.00 77 1012.0
20260502045000 55 263 0.9 1.7 0.00 0.00 0.00 77 1012.0
20260502044500 55 250 0.9 0.9 0.00 0.00 0.00 79 1011.9
20260502044000 55 228 0.9 0.9 0.00 0.00 0.00 80 1011.9
20260502043500 55 310 0.0 2.6 0.00 0.00 0.00 80 1011.8
20260502043000 55 292 0.9 2.6 0.00 0.00 0.00 78 1011.8
20260502042500 55 272 0.9 1.7 0.00 0.00 0.00 79 1011.9
20260502042000 55 256 1.7 1.7 0.00 0.00 0.00 83 1012.0
20260502041500 55 277 0.9 1.7 0.00 0.00 0.00 84 1011.9
20260502041000 55 283 1.7 1.7 0.00 0.00 0.00 83 1011.9
20260502040500 55 298 1.7 1.7 0.00 0.00 0.00 82 1011.9
20260502040000 56 302 1.7 2.6 0.00 0.00 0.00 80 1012.0
20260502035500 56 321 1.7 2.6 0.00 0.00 0.00 78 1011.9
20260502035000 56 317 2.6 2.6 0.00 0.00 0.00 75 1012.0
20260502034500 56 314 1.7 1.7 0.00 0.00 0.00 76 1012.0
20260502034000 56 307 0.9 0.9 0.00 0.00 0.00 74 1012.0
20260502033500 56 281 0.9 0.9 0.00 0.00 0.00 75 1012.0
20260502033000 56 289 0.0 0.9 0.00 0.00 0.00 74 1012.0
20260502032500 57 345 0.9 0.9 0.00 0.00 0.00 74 1011.9
20260502032000 57 4 0.0 1.7 0.00 0.00 0.00 73 1011.9
20260502031500 57 1 0.9 1.7 0.00 0.00 0.00 71 1011.8
20260502031000 57 39 0.9 0.9 0.00 0.00 0.00 70 1011.7
20260502030501 57 113 0.9 1.7 0.00 0.00 0.00 70 1011.8
20260502030000 58 79 0.9 2.6 0.00 0.00 0.00 69 1011.9
20260502025500 58 33 0.9 2.6 0.00 0.00 0.00 66 1011.9
20260502025000 58 20 1.7 3.5 0.00 0.00 0.00 66 1011.7
20260502024500 58 6 2.6 4.3 0.00 0.00 0.00 65 1011.6
20260502024000 58 8 2.6 4.3 0.00 0.00 0.00 64 1011.5
20260502023500 59 12 1.7 5.2 0.00 0.00 0.00 64 1011.5
20260502023000 59 10 3.5 5.2 0.00 0.00 0.00 63 1011.5
20260502022500 59 11 2.6 5.2 0.00 0.00 0.00 64 1011.3
20260502022000 59 5 4.3 5.2 0.00 0.00 0.00 63 1011.2
20260502021500 59 12 2.6 5.2 0.00 0.00 0.00 62 1011.2
20260502021000 59 18 4.3 5.2 0.00 0.00 0.00 61 1011.3
20260502020500 59 21 3.5 4.3 0.00 0.00 0.00 64 1011.2
20260502020000 59 36 3.5 4.3 0.00 0.00 0.00 65 1011.3
20260502015500 59 34 2.6 5.2 0.00 0.00 0.00 63 1011.5
20260502015000 59 41 3.5 5.2 0.00 0.00 0.00 64 1011.6
20260502014500 59 30 1.7 3.5 0.00 0.00 0.00 66 1011.7
20260502014000 59 34 1.7 3.5 0.00 0.00 0.00 67 1011.6
20260502013500 59 40 1.7 2.6 0.00 0.00 0.00 72 1011.6
20260502013000 59 39 1.7 2.6 0.00 0.00 0.00 74 1011.6
20260502012500 59 78 1.7 1.7 0.00 0.00 0.00 69 1011.8
20260502012000 59 59 1.7 2.6 0.00 0.00 0.00 67 1011.8
20260502011500 60 52 1.7 2.6 0.00 0.00 0.00 68 1011.7
20260502010954 60 33 2.6 2.6 0.00 0.00 0.00 64 1011.7
20260502010454 60 61 0.9 1.7 0.00 0.00 0.00 65 1011.8
20260502005954 60 86 1.7 2.6 0.00 0.00 0.00 63 1011.6
20260502005454 60 54 1.7 3.5 0.00 0.00 0.00 63 1011.7
20260502004954 60 58 2.6 3.5 0.00 0.00 0.00 62 1011.3
20260502004454 60 60 1.7 3.5 0.00 0.00 0.00 61 1011.5
20260502003959 61 60 2.6 3.5 0.00 0.00 0.00 58 1011.5
20260502003454 61 63 2.6 4.3 0.00 0.00 0.00 56 1011.6
20260502002954 61 69 1.7 4.3 0.00 0.00 0.00 53 1011.6
20260502002012 62 49 3.5 7.0 0.00 0.00 0.00 50 1011.4
20260502001006 62 59 4.3 7.8 0.00 0.00 0.00 48 1010.8
20260502000506 62 51 2.6 7.8 0.00 0.00 0.00 46 1010.5
20260502000006 62 35 3.5 8.7 0.00 0.00 0.00 45 1010.3
20260501235506 63 8 4.3 8.7 0.00 0.00 0.00 47 1010.1
20260501235006 63 57 4.3 7.0 0.00 0.00 0.00 48 1010.1
20260501234506 63 41 5.2 7.8 0.00 0.00 0.00 47 1010.3
20260501234006 63 65 5.2 7.8 0.00 0.00 0.00 47 1010.4
20260501233506 63 64 6.1 7.8 0.00 0.00 0.00 48 1010.5
20260501233006 64 36 5.2 7.8 0.00 0.00 0.00 47 1010.5
20260501232506 64 54 3.5 8.7 0.00 0.00 0.00 47 1010.3
20260501232007 64 47 4.3 8.7 0.00 0.00 0.00 47 1010.2
20260501231506 64 38 4.3 9.6 0.00 0.00 0.00 47 1010.1
20260501231006 64 22 4.3 9.6 0.00 0.00 0.00 47 1010.3
20260501230506 64 18 7.0 9.6 0.00 0.00 0.00 42 1010.5
20260501230006 64 39 5.2 9.6 0.00 0.00 0.00 43 1010.3
20260501225506 64 27 7.0 8.7 0.00 0.00 0.00 47 1010.2
20260501225006 64 42 6.1 9.6 0.00 0.00 0.00 45 1010.3
20260501224506 64 51 3.5 11.3 0.00 0.00 0.00 45 1010.3